FDX830 KMCO-KMEM

Flight info

Callsign FDX830
Flight time 1h 35m
Altitude 34000
Route RDSOX1 JFRYS PATOY Q116 GOOGY WASER VANZE3
Aircraft B77L/H-SDE1E2E3FGHIJ2J3J4J5M1RWXY/LB1D1

Departure

Time 2026-04-24 00:32
Airport Orlando International Airport (KMCO)

Arrival

Time 2026-04-24 02:07
Airport Memphis International Airport (KMEM)
Time Latitude Longitude Altitude Speed Heading
2026-04-24 00:05 28.41474 -81.33492 93 ft 0 kts 358°
2026-04-24 00:16 28.41462 -81.33491 104 ft 4 kts 359°
2026-04-24 00:16 28.41435 -81.33491 101 ft 3 kts
2026-04-24 00:16 28.41416 -81.33492 102 ft 4 kts 27°
2026-04-24 00:17 28.41404 -81.33505 101 ft 4 kts 77°
2026-04-24 00:17 28.41402 -81.33533 100 ft 4 kts 89°
2026-04-24 00:17 28.41401 -81.33550 101 ft 0 kts 89°
2026-04-24 00:20 28.41401 -81.33542 101 ft 4 kts 89°
2026-04-24 00:20 28.41402 -81.33494 100 ft 7 kts 89°
2026-04-24 00:20 28.41402 -81.33431 101 ft 12 kts 89°
2026-04-24 00:20 28.41403 -81.33315 102 ft 16 kts 89°
2026-04-24 00:21 28.41404 -81.33196 102 ft 14 kts 89°
2026-04-24 00:21 28.41404 -81.33098 102 ft 12 kts 89°
2026-04-24 00:21 28.41440 -81.33018 104 ft 12 kts 46°
2026-04-24 00:21 28.41498 -81.32952 106 ft 12 kts 46°
2026-04-24 00:22 28.41566 -81.32909 104 ft 12 kts 359°
2026-04-24 00:22 28.41655 -81.32910 104 ft 16 kts 359°
2026-04-24 00:22 28.41771 -81.32911 104 ft 17 kts 359°
2026-04-24 00:22 28.41889 -81.32912 105 ft 17 kts 359°
2026-04-24 00:23 28.42007 -81.32913 103 ft 17 kts 359°
2026-04-24 00:23 28.42124 -81.32914 103 ft 17 kts 359°
2026-04-24 00:23 28.42242 -81.32915 104 ft 17 kts 359°
2026-04-24 00:23 28.42359 -81.32917 105 ft 17 kts 359°
2026-04-24 00:24 28.42477 -81.32920 103 ft 17 kts 359°
2026-04-24 00:24 28.42594 -81.32919 104 ft 17 kts 358°
2026-04-24 00:24 28.42713 -81.32921 104 ft 17 kts 359°
2026-04-24 00:24 28.42830 -81.32923 104 ft 17 kts 359°
2026-04-24 00:25 28.42948 -81.32924 104 ft 17 kts 359°
2026-04-24 00:25 28.43066 -81.32925 105 ft 17 kts 360°
2026-04-24 00:25 28.43182 -81.32926 104 ft 17 kts 360°
2026-04-24 00:25 28.43300 -81.32926 104 ft 17 kts 360°
2026-04-24 00:26 28.43418 -81.32926 103 ft 17 kts 360°
2026-04-24 00:26 28.43535 -81.32927 104 ft 17 kts 359°
2026-04-24 00:26 28.43653 -81.32930 103 ft 17 kts 359°
2026-04-24 00:26 28.43771 -81.32932 103 ft 17 kts 359°
2026-04-24 00:27 28.43889 -81.32934 104 ft 17 kts 359°
2026-04-24 00:27 28.44002 -81.32905 103 ft 17 kts 28°
2026-04-24 00:27 28.44111 -81.32867 104 ft 17 kts
2026-04-24 00:27 28.44229 -81.32866 103 ft 17 kts 360°
2026-04-24 00:28 28.44347 -81.32867 105 ft 17 kts
2026-04-24 00:28 28.44464 -81.32867 104 ft 17 kts 359°
2026-04-24 00:28 28.44582 -81.32867 104 ft 17 kts 360°
2026-04-24 00:28 28.44700 -81.32868 104 ft 17 kts 360°
2026-04-24 00:29 28.44788 -81.32859 104 ft 12 kts 27°
2026-04-24 00:29 28.44814 -81.32770 105 ft 12 kts 88°
2026-04-24 00:29 28.44817 -81.32672 105 ft 12 kts 88°
2026-04-24 00:29 28.44820 -81.32573 103 ft 13 kts 89°
2026-04-24 00:30 28.44821 -81.32474 105 ft 13 kts 89°
2026-04-24 00:30 28.44822 -81.32374 105 ft 13 kts 90°
2026-04-24 00:30 28.44822 -81.32278 105 ft 7 kts 90°
2026-04-24 00:30 28.44804 -81.32228 105 ft 8 kts 158°
2026-04-24 00:31 28.44717 -81.32225 103 ft 26 kts 179°
2026-04-24 00:31 28.44318 -81.32222 105 ft 93 kts 179°
2026-04-24 00:31 28.43447 -81.32215 103 ft 155 kts 179°
2026-04-24 00:31 28.42260 -81.32221 368 ft 175 kts 176°
2026-04-24 00:32 28.41029 -81.32226 974 ft 176 kts 175°
2026-04-24 00:32 28.40240 -81.32206 1511 ft 171 kts 175°
2026-04-24 00:32 28.38586 -81.32778 1906 ft 206 kts 205°
2026-04-24 00:32 28.37723 -81.33312 2123 ft 222 kts 205°
2026-04-24 00:33 28.36287 -81.34184 2481 ft 244 kts 204°
2026-04-24 00:33 28.34764 -81.35139 3041 ft 256 kts 212°
2026-04-24 00:33 28.33605 -81.36703 3768 ft 265 kts 244°
2026-04-24 00:33 28.33182 -81.38761 4581 ft 270 kts 269°
2026-04-24 00:34 28.33420 -81.40858 5425 ft 271 kts 280°
2026-04-24 00:34 28.33796 -81.42960 6294 ft 271 kts 282°
2026-04-24 00:34 28.34188 -81.45041 7179 ft 271 kts 282°
2026-04-24 00:34 28.34587 -81.47160 7907 ft 275 kts 282°
2026-04-24 00:35 28.34979 -81.49263 8716 ft 277 kts 281°
2026-04-24 00:35 28.35376 -81.51418 9502 ft 280 kts 281°
2026-04-24 00:35 28.35774 -81.53599 10253 ft 283 kts 281°
2026-04-24 00:35 28.36176 -81.55820 10676 ft 300 kts 281°
2026-04-24 00:36 28.36612 -81.58237 10890 ft 325 kts 281°
2026-04-24 00:36 28.37081 -81.60853 11074 ft 351 kts 281°
2026-04-24 00:36 28.37577 -81.63637 11609 ft 364 kts 281°
2026-04-24 00:36 28.38081 -81.66473 12518 ft 367 kts 281°
2026-04-24 00:37 28.38587 -81.69325 13460 ft 372 kts 281°
2026-04-24 00:37 28.39102 -81.72234 14206 ft 379 kts 281°
2026-04-24 00:37 28.39627 -81.75200 14924 ft 386 kts 281°
2026-04-24 00:37 28.40157 -81.78200 15710 ft 390 kts 281°
2026-04-24 00:38 28.40687 -81.81203 16522 ft 394 kts 281°
2026-04-24 00:38 28.41229 -81.84280 17319 ft 398 kts 281°
2026-04-24 00:38 28.41774 -81.87377 18074 ft 403 kts 281°
2026-04-24 00:38 28.42315 -81.90522 18753 ft 407 kts 279°
2026-04-24 00:39 28.42657 -81.93732 19419 ft 411 kts 273°
2026-04-24 00:39 28.42726 -81.96992 20103 ft 414 kts 271°
2026-04-24 00:39 28.42760 -82.00263 20777 ft 417 kts 271°
2026-04-24 00:39 28.42795 -82.03577 21430 ft 421 kts 271°
2026-04-24 00:40 28.42834 -82.06923 22064 ft 425 kts 271°
2026-04-24 00:40 28.42879 -82.10293 22684 ft 429 kts 271°
2026-04-24 00:40 28.42928 -82.13704 23317 ft 433 kts 271°
2026-04-24 00:40 28.42978 -82.17096 23886 ft 436 kts 271°
2026-04-24 00:41 28.43029 -82.20559 24454 ft 438 kts 271°
2026-04-24 00:41 28.43080 -82.24024 25045 ft 440 kts 270°
2026-04-24 00:41 28.43130 -82.27509 25631 ft 441 kts 270°
2026-04-24 00:41 28.43179 -82.31004 26203 ft 443 kts 270°
2026-04-24 00:42 28.43228 -82.34510 26758 ft 446 kts 270°
2026-04-24 00:42 28.43276 -82.38039 27292 ft 448 kts 270°
2026-04-24 00:42 28.43389 -82.41581 27756 ft 449 kts 276°
2026-04-24 00:42 28.44222 -82.45021 28076 ft 459 kts 292°
2026-04-24 00:43 28.45897 -82.48151 28574 ft 466 kts 304°
2026-04-24 00:43 28.48130 -82.50861 29096 ft 474 kts 317°
2026-04-24 00:43 28.50893 -82.52937 29487 ft 479 kts 325°
2026-04-24 00:43 28.53770 -82.54808 29871 ft 483 kts 326°
2026-04-24 00:44 28.56706 -82.56670 30392 ft 482 kts 326°
2026-04-24 00:44 28.59623 -82.58532 30940 ft 479 kts 326°
2026-04-24 00:44 28.62514 -82.60407 31459 ft 477 kts 325°
2026-04-24 00:44 28.65387 -82.62302 31917 ft 477 kts 324°
2026-04-24 00:45 28.68248 -82.64211 32358 ft 476 kts 324°
2026-04-24 00:45 28.71103 -82.66128 32822 ft 475 kts 323°
2026-04-24 00:45 28.73943 -82.68039 33260 ft 474 kts 323°
2026-04-24 00:45 28.76786 -82.69954 33695 ft 474 kts 323°
2026-04-24 00:46 28.79619 -82.71861 34072 ft 474 kts 323°
2026-04-24 00:46 28.82479 -82.73790 34059 ft 481 kts 323°
2026-04-24 00:46 28.88295 -82.77711 34074 ft 490 kts 323°
2026-04-24 00:47 28.94232 -82.81713 34074 ft 499 kts 324°
2026-04-24 00:47 29.00191 -82.85733 34072 ft 502 kts 324°
2026-04-24 00:48 29.06207 -82.89813 34069 ft 501 kts 324°
2026-04-24 00:48 29.11911 -82.94333 34070 ft 498 kts 321°
2026-04-24 00:49 29.17520 -82.98999 34060 ft 498 kts 321°
2026-04-24 00:49 29.23151 -83.03630 34051 ft 498 kts 322°
2026-04-24 00:50 29.28785 -83.08245 34068 ft 498 kts 323°
2026-04-24 00:50 29.34400 -83.12850 34066 ft 499 kts 323°
2026-04-24 00:51 29.40044 -83.17487 34064 ft 499 kts 324°
2026-04-24 00:51 29.45699 -83.22141 34057 ft 500 kts 324°
2026-04-24 00:52 29.51353 -83.26800 34055 ft 500 kts 325°
2026-04-24 00:52 29.57009 -83.31468 34058 ft 501 kts 325°
2026-04-24 00:53 29.62666 -83.36143 34059 ft 501 kts 325°
2026-04-24 00:53 29.68292 -83.40798 34057 ft 501 kts 325°
2026-04-24 00:54 29.73951 -83.45489 34061 ft 501 kts 325°
2026-04-24 00:54 29.79617 -83.50192 34065 ft 501 kts 325°
2026-04-24 00:55 29.85272 -83.54892 34067 ft 501 kts 325°
2026-04-24 00:55 29.90934 -83.59590 34073 ft 501 kts 325°
2026-04-24 00:56 29.96599 -83.64284 34072 ft 501 kts 325°
2026-04-24 00:56 30.02258 -83.68983 34076 ft 501 kts 325°
2026-04-24 00:57 30.07884 -83.73664 34068 ft 501 kts 324°
2026-04-24 00:58 30.16377 -83.80743 34066 ft 501 kts 324°
2026-04-24 00:58 30.22023 -83.85468 34063 ft 501 kts 324°
2026-04-24 00:59 30.27680 -83.90225 34057 ft 501 kts 324°
2026-04-24 00:59 30.33285 -83.94948 34056 ft 502 kts 324°
2026-04-24 01:00 30.38925 -83.99704 34058 ft 502 kts 324°
2026-04-24 01:00 30.44571 -84.04471 34056 ft 502 kts 324°
2026-04-24 01:01 30.50216 -84.09244 34049 ft 502 kts 324°
2026-04-24 01:01 30.55862 -84.14025 34053 ft 502 kts 324°
2026-04-24 01:02 30.61503 -84.18809 34053 ft 502 kts 324°
2026-04-24 01:02 30.67109 -84.23571 34053 ft 502 kts 324°
2026-04-24 01:03 30.72746 -84.28365 34050 ft 502 kts 324°
2026-04-24 01:03 30.78388 -84.33171 34052 ft 502 kts 324°
2026-04-24 01:04 30.84021 -84.37977 34056 ft 502 kts 324°
2026-04-24 01:04 30.89645 -84.42783 34060 ft 501 kts 324°
2026-04-24 01:05 30.95267 -84.47593 34059 ft 501 kts 324°
2026-04-24 01:05 31.00886 -84.52408 34064 ft 501 kts 324°
2026-04-24 01:06 31.06471 -84.57201 34065 ft 501 kts 324°
2026-04-24 01:06 31.12085 -84.62026 34062 ft 501 kts 324°
2026-04-24 01:07 31.17698 -84.66858 34057 ft 501 kts 324°
2026-04-24 01:07 31.23302 -84.71689 34060 ft 501 kts 324°
2026-04-24 01:08 31.28915 -84.76535 34062 ft 501 kts 324°
2026-04-24 01:08 31.34487 -84.81354 34062 ft 501 kts 324°
2026-04-24 01:09 31.40098 -84.86213 34063 ft 501 kts 323°
2026-04-24 01:09 31.45715 -84.91086 34062 ft 502 kts 323°
2026-04-24 01:10 31.51324 -84.95959 34064 ft 502 kts 323°
2026-04-24 01:10 31.56932 -85.00838 34063 ft 502 kts 323°
2026-04-24 01:11 31.62532 -85.05728 34061 ft 502 kts 323°
2026-04-24 01:11 31.68098 -85.10604 34060 ft 502 kts 323°
2026-04-24 01:12 31.73697 -85.15518 34057 ft 502 kts 323°
2026-04-24 01:12 31.79300 -85.20442 34054 ft 502 kts 323°
2026-04-24 01:13 31.84900 -85.25371 34052 ft 503 kts 323°
2026-04-24 01:13 31.90497 -85.30304 34053 ft 503 kts 323°
2026-04-24 01:14 31.96093 -85.35244 34048 ft 502 kts 323°
2026-04-24 01:14 32.01655 -85.40161 34048 ft 502 kts 323°
2026-04-24 01:15 32.07242 -85.45109 34043 ft 502 kts 322°
2026-04-24 01:15 32.12824 -85.50059 34041 ft 501 kts 322°
2026-04-24 01:16 32.18410 -85.55021 34041 ft 501 kts 322°
2026-04-24 01:16 32.23951 -85.59951 34033 ft 501 kts 322°
2026-04-24 01:17 32.29524 -85.64918 34040 ft 502 kts 322°
2026-04-24 01:17 32.35098 -85.69893 34036 ft 502 kts 322°
2026-04-24 01:18 32.40666 -85.74870 34032 ft 502 kts 322°
2026-04-24 01:18 32.46236 -85.79858 34028 ft 502 kts 322°
2026-04-24 01:19 32.51809 -85.84855 34025 ft 502 kts 322°
2026-04-24 01:19 32.57375 -85.89855 34026 ft 502 kts 322°
2026-04-24 01:20 32.62908 -85.94832 34030 ft 502 kts 322°
2026-04-24 01:20 32.68478 -85.99851 34036 ft 503 kts 322°
2026-04-24 01:21 32.74048 -86.04879 34045 ft 502 kts 322°
2026-04-24 01:21 32.78681 -86.09066 34041 ft 502 kts 321°
2026-04-24 01:22 32.84238 -86.14096 34040 ft 502 kts 321°
2026-04-24 01:22 32.89796 -86.19136 34042 ft 502 kts 321°
2026-04-24 01:23 32.95354 -86.24183 34039 ft 502 kts 321°
2026-04-24 01:23 33.00921 -86.29246 34049 ft 502 kts 321°
2026-04-24 01:24 33.06478 -86.34310 34053 ft 502 kts 321°
2026-04-24 01:24 33.12008 -86.39356 34055 ft 502 kts 321°
2026-04-24 01:25 33.17553 -86.44425 34055 ft 502 kts 321°
2026-04-24 01:25 33.23066 -86.49473 34050 ft 502 kts 321°
2026-04-24 01:26 33.28607 -86.54554 34042 ft 502 kts 321°
2026-04-24 01:26 33.34137 -86.59634 34029 ft 502 kts 321°
2026-04-24 01:27 33.39680 -86.64735 34046 ft 502 kts 321°
2026-04-24 01:27 33.45219 -86.69840 34048 ft 502 kts 321°
2026-04-24 01:28 33.50754 -86.74950 34047 ft 502 kts 321°
2026-04-24 01:28 33.56284 -86.80065 34048 ft 502 kts 321°
2026-04-24 01:29 33.61789 -86.85162 34045 ft 502 kts 321°
2026-04-24 01:29 33.66807 -86.90949 34036 ft 500 kts 308°
2026-04-24 01:30 33.70720 -86.97837 34023 ft 498 kts 298°
2026-04-24 01:30 33.74002 -87.05183 34002 ft 499 kts 297°
2026-04-24 01:31 33.77248 -87.12488 34010 ft 499 kts 297°
2026-04-24 01:31 33.80562 -87.19826 34022 ft 499 kts 297°
2026-04-24 01:32 33.83897 -87.27180 34028 ft 499 kts 297°
2026-04-24 01:32 33.87215 -87.34521 34031 ft 499 kts 297°
2026-04-24 01:33 33.90505 -87.41819 34031 ft 499 kts 297°
2026-04-24 01:33 33.93821 -87.49222 34015 ft 499 kts 297°
2026-04-24 01:34 33.97074 -87.56534 34008 ft 499 kts 297°
2026-04-24 01:34 34.00347 -87.63897 33990 ft 498 kts 297°
2026-04-24 01:35 34.03709 -87.71201 33976 ft 498 kts 301°
2026-04-24 01:35 34.07473 -87.78218 33971 ft 498 kts 302°
2026-04-24 01:36 34.11273 -87.85218 33971 ft 497 kts 301°
2026-04-24 01:36 34.15025 -87.92227 33978 ft 497 kts 301°
2026-04-24 01:37 34.18740 -87.99212 33978 ft 496 kts 301°
2026-04-24 01:37 34.22439 -88.06256 33980 ft 496 kts 300°
2026-04-24 01:38 34.25984 -88.13371 33656 ft 491 kts 299°
2026-04-24 01:38 34.27752 -88.16929 32803 ft 491 kts 300°
2026-04-24 01:38 34.29506 -88.20463 31814 ft 491 kts 300°
2026-04-24 01:38 34.31232 -88.23941 31710 ft 473 kts 299°
2026-04-24 01:39 34.32884 -88.27279 31477 ft 461 kts 299°
2026-04-24 01:39 34.34514 -88.30573 31072 ft 453 kts 299°
2026-04-24 01:39 34.36127 -88.33831 30536 ft 449 kts 299°
2026-04-24 01:39 34.37729 -88.37069 30005 ft 446 kts 300°
2026-04-24 01:40 34.39318 -88.40281 29394 ft 442 kts 300°
2026-04-24 01:40 34.40894 -88.43471 28820 ft 438 kts 300°
2026-04-24 01:40 34.42450 -88.46623 28281 ft 433 kts 300°
2026-04-24 01:40 34.43989 -88.49745 27754 ft 429 kts 300°
2026-04-24 01:41 34.45513 -88.52838 27219 ft 426 kts 300°
2026-04-24 01:41 34.47022 -88.55904 26734 ft 422 kts 300°
2026-04-24 01:41 34.48516 -88.58943 26220 ft 419 kts 300°
2026-04-24 01:41 34.49984 -88.61933 25727 ft 416 kts 300°
2026-04-24 01:42 34.51457 -88.64935 25222 ft 413 kts 300°
2026-04-24 01:42 34.52919 -88.67916 24738 ft 410 kts 300°
2026-04-24 01:42 34.54374 -88.70884 24239 ft 408 kts 300°
2026-04-24 01:42 34.55819 -88.73836 23744 ft 406 kts 300°
2026-04-24 01:43 34.57259 -88.76781 23188 ft 404 kts 300°
2026-04-24 01:43 34.58692 -88.79712 22685 ft 401 kts 300°
2026-04-24 01:43 34.60108 -88.82612 22180 ft 398 kts 300°
2026-04-24 01:43 34.61516 -88.85496 21696 ft 395 kts 300°
2026-04-24 01:44 34.62908 -88.88350 21236 ft 391 kts 300°
2026-04-24 01:44 34.64101 -88.91300 20737 ft 387 kts 289°
2026-04-24 01:44 34.64801 -88.94437 20302 ft 383 kts 284°
2026-04-24 01:44 34.65409 -88.97579 19838 ft 381 kts 284°
2026-04-24 01:45 34.66025 -89.00651 19382 ft 378 kts 285°
2026-04-24 01:45 34.66678 -89.03735 18931 ft 375 kts 285°
2026-04-24 01:45 34.67337 -89.06763 18722 ft 366 kts 285°
2026-04-24 01:45 34.67989 -89.09721 18428 ft 359 kts 286°
2026-04-24 01:46 34.68664 -89.12642 17983 ft 357 kts 286°
2026-04-24 01:46 34.69342 -89.15533 17530 ft 354 kts 286°
2026-04-24 01:46 34.70013 -89.18401 17127 ft 350 kts 286°
2026-04-24 01:46 34.70671 -89.21234 16717 ft 346 kts 286°
2026-04-24 01:47 34.71319 -89.24037 16296 ft 343 kts 286°
2026-04-24 01:47 34.71952 -89.26784 15922 ft 340 kts 285°
2026-04-24 01:47 34.72578 -89.29574 15606 ft 337 kts 285°
2026-04-24 01:47 34.73190 -89.32331 15410 ft 340 kts 285°
2026-04-24 01:48 34.73806 -89.35101 15024 ft 345 kts 285°
2026-04-24 01:48 34.74430 -89.37915 14696 ft 345 kts 285°
2026-04-24 01:48 34.75053 -89.40725 14369 ft 343 kts 285°
2026-04-24 01:48 34.75672 -89.43518 14050 ft 341 kts 285°
2026-04-24 01:49 34.76287 -89.46303 13725 ft 338 kts 284°
2026-04-24 01:49 34.76903 -89.49053 13370 ft 335 kts 287°
2026-04-24 01:49 34.77851 -89.51615 13043 ft 331 kts 300°
2026-04-24 01:49 34.79085 -89.53957 12744 ft 328 kts 302°
2026-04-24 01:50 34.80270 -89.56182 12434 ft 327 kts 301°
2026-04-24 01:50 34.81495 -89.58525 12141 ft 328 kts 301°
2026-04-24 01:50 34.82705 -89.60883 11868 ft 328 kts 301°
2026-04-24 01:50 34.83897 -89.63235 11546 ft 324 kts 300°
2026-04-24 01:51 34.85071 -89.65558 11237 ft 318 kts 300°
2026-04-24 01:51 34.86192 -89.67781 10924 ft 297 kts 300°
2026-04-24 01:51 34.87257 -89.69895 10671 ft 291 kts 300°
2026-04-24 01:51 34.88310 -89.71989 10394 ft 289 kts 300°
2026-04-24 01:52 34.89352 -89.74062 10127 ft 284 kts 300°
2026-04-24 01:52 34.90375 -89.76094 9879 ft 279 kts 300°
2026-04-24 01:52 34.91365 -89.78064 9600 ft 273 kts 300°
2026-04-24 01:52 34.92352 -89.80028 9340 ft 271 kts 299°
2026-04-24 01:53 34.93334 -89.81983 9075 ft 270 kts 299°
2026-04-24 01:53 34.94324 -89.83916 8828 ft 268 kts 304°
2026-04-24 01:53 34.95719 -89.85374 8610 ft 264 kts 332°
2026-04-24 01:53 34.97482 -89.85932 8331 ft 261 kts 354°
2026-04-24 01:54 34.99269 -89.85975 8106 ft 252 kts 356°
2026-04-24 01:54 35.00985 -89.85992 7892 ft 247 kts 356°
2026-04-24 01:54 35.02717 -89.86013 7565 ft 249 kts 356°
2026-04-24 01:54 35.04459 -89.86040 7266 ft 250 kts 356°
2026-04-24 01:55 35.06205 -89.86070 6975 ft 252 kts 356°
2026-04-24 01:55 35.07970 -89.86102 6674 ft 254 kts 356°
2026-04-24 01:55 35.09721 -89.86138 6380 ft 256 kts 355°
2026-04-24 01:55 35.11506 -89.86176 6064 ft 256 kts 356°
2026-04-24 01:56 35.13275 -89.86212 5740 ft 252 kts 356°
2026-04-24 01:56 35.15013 -89.86248 5437 ft 248 kts 356°
2026-04-24 01:56 35.16730 -89.86284 5152 ft 249 kts 357°
2026-04-24 01:56 35.18484 -89.86321 4867 ft 251 kts 357°
2026-04-24 01:57 35.20240 -89.86359 4568 ft 253 kts 358°
2026-04-24 01:57 35.21985 -89.86395 4360 ft 254 kts 358°
2026-04-24 01:57 35.23787 -89.86433 4027 ft 259 kts 358°
2026-04-24 01:57 35.25590 -89.86471 3669 ft 259 kts 358°
2026-04-24 01:58 35.27383 -89.86509 3343 ft 256 kts 358°
2026-04-24 01:58 35.29144 -89.86546 3131 ft 248 kts 359°
2026-04-24 01:58 35.30832 -89.86601 3057 ft 241 kts 357°
2026-04-24 01:58 35.32531 -89.86686 3010 ft 245 kts 354°
2026-04-24 01:59 35.34108 -89.87320 2988 ft 242 kts 320°
2026-04-24 01:59 35.35176 -89.88844 3002 ft 233 kts 286°
2026-04-24 01:59 35.35408 -89.90721 2992 ft 218 kts 253°
2026-04-24 01:59 35.34781 -89.92315 2991 ft 204 kts 220°
2026-04-24 02:00 35.33686 -89.93339 2986 ft 192 kts 210°
2026-04-24 02:00 35.32608 -89.94179 2970 ft 176 kts 208°
2026-04-24 02:00 35.31599 -89.94967 2976 ft 170 kts 208°
2026-04-24 02:00 35.30620 -89.95730 2989 ft 167 kts 208°
2026-04-24 02:01 35.29639 -89.96478 2975 ft 165 kts 208°
2026-04-24 02:01 35.28654 -89.97209 2963 ft 163 kts 200°
2026-04-24 02:01 35.27559 -89.97432 3004 ft 160 kts 185°
2026-04-24 02:01 35.26434 -89.97573 2969 ft 164 kts 185°
2026-04-24 02:02 35.25287 -89.97658 2968 ft 166 kts 182°
2026-04-24 02:02 35.24124 -89.97678 2978 ft 167 kts 181°
2026-04-24 02:02 35.22955 -89.97671 2974 ft 168 kts 180°
2026-04-24 02:02 35.21793 -89.97653 2972 ft 166 kts 179°
2026-04-24 02:03 35.19500 -89.97604 2974 ft 166 kts 180°
2026-04-24 02:03 35.18332 -89.97579 2894 ft 169 kts 179°
2026-04-24 02:03 35.17165 -89.97554 2673 ft 164 kts 179°
2026-04-24 02:04 35.16049 -89.97531 2447 ft 154 kts 178°
2026-04-24 02:04 35.15038 -89.97509 2280 ft 139 kts 180°
2026-04-24 02:04 35.14112 -89.97490 2108 ft 128 kts 179°
2026-04-24 02:04 35.13227 -89.97471 1934 ft 129 kts 179°
2026-04-24 02:05 35.12340 -89.97452 1765 ft 124 kts 177°
2026-04-24 02:05 35.11495 -89.97429 1562 ft 121 kts 180°
2026-04-24 02:05 35.10639 -89.97412 1375 ft 127 kts 180°
2026-04-24 02:05 35.09760 -89.97399 1267 ft 125 kts 179°
2026-04-24 02:06 35.08889 -89.97380 1069 ft 128 kts 177°
2026-04-24 02:06 35.07990 -89.97357 928 ft 130 kts 179°
2026-04-24 02:06 35.07076 -89.97343 798 ft 135 kts 179°
2026-04-24 02:06 35.06119 -89.97321 600 ft 137 kts 177°
2026-04-24 02:07 35.05179 -89.97304 404 ft 134 kts 177°
2026-04-24 02:07 35.04287 -89.97283 333 ft 118 kts 177°
2026-04-24 02:07 35.03599 -89.97270 332 ft 77 kts 179°
2026-04-24 02:07 35.03313 -89.97263 332 ft 48 kts 179°
2026-04-24 02:08 35.02991 -89.97258 332 ft 28 kts 180°
2026-04-24 02:08 35.02859 -89.97274 332 ft 28 kts 191°
2026-04-24 02:08 35.02716 -89.97354 330 ft 9 kts 229°
2026-04-24 02:08 35.02708 -89.97401 332 ft 9 kts 286°
2026-04-24 02:09 35.02773 -89.97426 331 ft 12 kts 356°
2026-04-24 02:09 35.02863 -89.97429 330 ft 14 kts 359°
2026-04-24 02:09 35.02971 -89.97431 328 ft 17 kts 359°
2026-04-24 02:09 35.03094 -89.97434 330 ft 19 kts 359°
2026-04-24 02:10 35.03230 -89.97437 329 ft 21 kts 359°
2026-04-24 02:10 35.03376 -89.97440 330 ft 21 kts 359°
2026-04-24 02:10 35.03522 -89.97444 330 ft 21 kts 359°
2026-04-24 02:10 35.03669 -89.97446 329 ft 21 kts 359°
2026-04-24 02:11 35.03815 -89.97449 330 ft 21 kts 359°
2026-04-24 02:11 35.03954 -89.97452 330 ft 19 kts 359°
2026-04-24 02:11 35.04085 -89.97454 330 ft 19 kts 359°
2026-04-24 02:11 35.04215 -89.97458 330 ft 19 kts 359°
2026-04-24 02:12 35.04345 -89.97461 331 ft 19 kts 359°
2026-04-24 02:12 35.04476 -89.97462 329 ft 19 kts 360°
2026-04-24 02:12 35.04607 -89.97465 329 ft 19 kts 359°
2026-04-24 02:12 35.04737 -89.97468 330 ft 19 kts 359°
2026-04-24 02:13 35.04867 -89.97470 329 ft 19 kts 360°
2026-04-24 02:13 35.04997 -89.97474 329 ft 19 kts 359°
2026-04-24 02:13 35.05126 -89.97477 330 ft 19 kts 359°
2026-04-24 02:13 35.05257 -89.97479 330 ft 19 kts 359°
2026-04-24 02:14 35.05387 -89.97480 330 ft 19 kts 358°
2026-04-24 02:14 35.05517 -89.97485 331 ft 19 kts 358°
2026-04-24 02:14 35.05648 -89.97488 332 ft 19 kts 359°
2026-04-24 02:14 35.05778 -89.97488 332 ft 19 kts
2026-04-24 02:15 35.05887 -89.97501 333 ft 13 kts 353°
2026-04-24 02:15 35.05941 -89.97444 332 ft 12 kts 86°
2026-04-24 02:15 35.05937 -89.97344 330 ft 12 kts 92°
2026-04-24 02:15 35.05934 -89.97243 335 ft 12 kts 92°
2026-04-24 02:16 35.05931 -89.97143 334 ft 12 kts 92°
2026-04-24 02:16 35.05928 -89.97042 335 ft 12 kts 91°
2026-04-24 02:16 35.05926 -89.96942 335 ft 12 kts 91°
2026-04-24 02:16 35.05924 -89.96842 335 ft 12 kts 91°
2026-04-24 02:17 35.05922 -89.96741 331 ft 12 kts 92°
2026-04-24 02:17 35.05918 -89.96641 332 ft 12 kts 92°
2026-04-24 02:17 35.05946 -89.96554 331 ft 12 kts 33°
2026-04-24 02:17 35.06015 -89.96498 333 ft 12 kts 33°
2026-04-24 02:18 35.06048 -89.96414 333 ft 12 kts 93°
2026-04-24 02:18 35.06044 -89.96311 335 ft 12 kts 92°
2026-04-24 02:18 35.06041 -89.96209 335 ft 12 kts 92°
2026-04-24 02:18 35.06038 -89.96107 331 ft 12 kts 92°
2026-04-24 02:19 35.06035 -89.96005 332 ft 12 kts 91°
2026-04-24 02:19 35.06033 -89.95902 333 ft 12 kts 92°
2026-04-24 02:19 35.06030 -89.95801 335 ft 12 kts 92°
2026-04-24 02:19 35.06026 -89.95716 331 ft 7 kts 92°
2026-04-24 02:20 35.06024 -89.95665 331 ft 5 kts 92°
2026-04-24 02:20 35.06038 -89.95630 332 ft 5 kts 31°
2026-04-24 02:20 35.06073 -89.95623 332 ft 5 kts
2026-04-24 02:20 35.06089 -89.95623 332 ft 0 kts